DW9866 Weather Reports


Display with metric or nautical units.
time (UTC)temp
F
wind
direction
speed
MPH
gust
MPH
rain 1hr
in
rain 24hr
in
rain mn
in
humidity
%
barometer
mb
20260509223025 50 204 5.0 11.0 0.00 0.27 0.26 92 1008.3
20260509221522 50 204 7.0 13.0 0.00 0.27 0.26 92 1008.3
20260509220015 50 204 7.0 13.0 0.00 0.27 0.26 96 1008.3
20260509214518 49 204 5.0 13.0 0.00 0.27 0.26 98 1008.6
20260509213008 49 204 5.0 13.0 0.00 0.27 0.26 99 1008.7
20260509211513 48 204 6.0 13.0 0.00 0.27 0.26 99 1008.8
20260509210004 48 204 4.0 10.0 0.00 0.27 0.26 99 1009.0
20260509204503 48 204 7.0 14.0 0.01 0.27 0.26 98 1009.1
20260509203104 48 204 8.0 16.0 0.01 0.27 0.26 98 1009.0
20260509201558 48 204 6.0 16.0 0.02 0.27 0.26 99 1009.0
20260509200055 47 204 8.0 14.0 0.03 0.27 0.26 99 1008.9
20260509194559 47 204 6.0 12.0 0.03 0.26 0.25 99 1009.1
20260509193047 47 204 5.0 13.0 0.06 0.26 0.25 99 1009.6
20260509191547 46 204 4.0 12.0 0.06 0.25 0.24 98 1009.9
20260509190047 46 204 9.0 17.0 0.07 0.24 0.23 98 1009.9
20260509184547 47 204 10.0 18.0 0.07 0.22 0.21 98 1009.9
20260509183040 46 204 9.0 17.0 0.06 0.20 0.19 98 1010.0
20260509181538 46 204 9.0 23.0 0.08 0.19 0.18 98 1010.1
20260509180041 46 204 9.0 21.0 0.07 0.17 0.16 98 1010.0
20260509174536 46 204 9.0 19.0 0.06 0.15 0.14 98 1009.9
20260509173034 46 204 11.0 21.0 0.06 0.14 0.13 98 1009.8
20260509171531 47 204 10.0 18.0 0.04 0.11 0.10 98 1009.8
20260509170032 47 204 10.0 19.0 0.03 0.10 0.09 97 1009.9
20260509164528 47 204 11.0 18.0 0.02 0.09 0.08 97 1009.9
20260509163031 47 204 8.0 17.0 0.01 0.08 0.07 96 1010.0
20260509161519 47 204 9.0 17.0 0.00 0.07 0.06 96 1010.1
20260509160012 46 204 9.0 19.0 0.00 0.07 0.06 96 1010.1
20260509154503 47 204 8.0 18.0 0.00 0.07 0.06 96 1010.1
20260509153005 47 204 12.0 19.0 0.01 0.07 0.06 94 1010.1
20260509151553 47 204 6.0 15.0 0.01 0.07 0.06 95 1010.2
20260509150050 46 204 7.0 13.0 0.02 0.07 0.06 95 1010.2
20260509144546 46 204 6.0 14.0 0.02 0.07 0.06 95 1010.3
20260509143047 46 204 7.0 17.0 0.02 0.06 0.05 94 1010.4
20260509141536 46 204 8.0 18.0 0.01 0.05 0.04 92 1010.7
20260509140045 46 204 7.0 18.0 0.01 0.05 0.04 93 1010.5
20260509134528 45 204 5.0 12.0 0.01 0.05 0.03 94 1010.5
20260509133012 45 204 8.0 16.0 0.00 0.04 0.03 93 1010.3
20260509131512 45 204 7.0 16.0 0.00 0.04 0.03 92 1010.4
20260509130012 45 206 7.0 16.0 0.01 0.04 0.03 91 1010.3
20260509124605 45 206 6.0 13.0 0.01 0.04 0.03 90 1010.3
20260509123047 46 206 7.0 13.0 0.01 0.04 0.03 89 1010.3
20260509121541 47 206 7.0 13.0 0.01 0.04 0.03 88 1010.3
20260509120029 46 206 7.0 11.0 0.00 0.03 0.02 88 1010.4
20260509114521 46 206 7.0 12.0 0.00 0.03 0.02 88 1010.6
20260509113100 46 206 7.0 14.0 0.00 0.03 0.02 87 1010.6
20260509111538 46 206 7.0 15.0 0.00 0.03 0.02 86 1010.7
20260509110029 46 206 9.0 14.0 0.01 0.03 0.02 86 1010.6
20260509104534 46 206 8.0 15.0 0.01 0.03 0.02 85 1010.4
20260509103026 46 206 7.0 15.0 0.01 0.03 0.02 85 1010.4
20260509101517 46 206 9.0 15.0 0.01 0.03 0.02 84 1010.3
20260509100014 46 206 5.0 14.0 0.00 0.02 0.01 84 1010.5
20260509094508 46 206 8.0 14.0 0.00 0.02 0.01 84 1010.3
20260509093004 46 205 6.0 11.0 0.00 0.02 0.01 86 1010.4
20260509091505 45 206 5.0 10.0 0.00 0.02 0.01 88 1010.6
20260509090007 45 206 4.0 7.0 0.00 0.02 0.01 89 1010.9
20260509084546 44 206 4.0 7.0 0.00 0.02 0.01 91 1011.1
20260509083022 44 206 4.0 8.0 0.00 0.02 0.01 93 1011.4
20260509081559 44 206 2.0 5.0 0.00 0.02 0.01 93 1011.6
20260509080100 45 206 2.0 5.0 0.00 0.02 0.01 91 1011.7
20260509074510 45 206 2.0 4.0 0.00 0.02 0.01 91 1011.5
20260509073206 45 206 1.0 3.0 0.00 0.02 0.01 91 1011.9
20260509071536 45 206 1.0 5.0 0.00 0.02 0.01 89 1011.9
20260509070016 45 206 0.0 3.0 0.00 0.02 0.01 89 1011.4
20260509064549 45 206 1.0 2.0 0.01 0.02 0.01 89 1011.6
20260509063031 45 206 1.0 3.0 0.01 0.02 0.01 90 1012.0
20260509061505 45 206 0.0 7.0 0.01 0.02 0.01 92 1012.2
20260509060043 44 206 4.0 12.0 0.01 0.02 0.01 92 1012.6
20260509054530 45 206 6.0 13.0 0.00 0.02 0.00 91 1012.8
20260509053005 45 206 4.0 10.0 0.00 0.02 0.00 89 1012.5
20260509051539 46 206 4.0 8.0 0.00 0.02 0.00 86 1012.3
20260509050032 47 206 1.0 5.0 0.00 0.02 0.00 84 1012.1
20260509044601 47 206 0.0 6.0 0.00 0.04 0.00 85 1011.9
20260509043043 46 206 0.0 4.0 0.00 0.04 0.00 85 1012.1
20260509041509 46 205 2.0 6.0 0.00 0.04 0.00 86 1012.4
20260509040106 46 206 1.0 6.0 0.00 0.04 0.00 85 1012.6
20260509034531 46 206 1.0 6.0 0.00 0.04 0.04 86 1012.5
20260509033010 46 206 2.0 6.0 0.00 0.04 0.04 85 1012.4
20260509031545 46 206 3.0 7.0 0.00 0.04 0.04 85 1012.7
20260509030035 46 206 4.0 8.0 0.00 0.04 0.04 86 1012.8
20260509024502 45 206 3.0 6.0 0.00 0.04 0.04 86 1012.5
20260509023046 45 206 2.0 5.0 0.00 0.04 0.04 86 1012.4
20260509021521 46 206 3.0 5.0 0.00 0.04 0.04 85 1012.6
20260509020055 46 206 3.0 8.0 0.00 0.04 0.04 86 1012.5
20260509014541 45 206 2.0 4.0 0.00 0.04 0.04 87 1012.3
20260509013032 46 206 2.0 4.0 0.00 0.04 0.04 87 1012.2
20260509011551 45 206 1.0 6.0 0.00 0.04 0.04 88 1012.2
20260509010031 45 206 2.0 4.0 0.00 0.04 0.04 90 1011.9
20260509004533 45 206 2.0 3.0 0.00 0.04 0.04 90 1011.8
20260509003053 45 206 2.0 4.0 0.00 0.04 0.04 89 1011.7
20260509001528 45 206 1.0 3.0 0.01 0.04 0.04 88 1011.6
20260509000007 45 206 1.0 3.0 0.01 0.04 0.04 88 1011.4
20260508234547 45 206 1.0 4.0 0.01 0.04 0.04 87 1011.5
20260508233022 46 206 1.0 5.0 0.01 0.04 0.04 87 1011.4
20260508231601 47 205 2.0 8.0 0.00 0.03 0.03 83 1011.3
20260508230051 49 206 4.0 8.0 0.00 0.03 0.03 76 1011.3
20260508224513 49 206 0.0 3.0 0.00 0.03 0.03 72 1011.0